Dewpoint
-4 -4 -4 -3 -3 -3 -1 4 6 7 9 10 10 11 10 10 9 9 10 10 10 10 9 7 6 7 8 9 10 10 12 11
-4 -5 -4 -2 -2 -1 -1 3 7 7 8 10 10 11 11 10 10 10 10 10 10 9 7 7 7 7 8 9 10 10 12 11
-3 -4 -5 -4 -3 -2 -0 1 7 9 10 10 11 11 11 11 11 11 10 11 9 8 7 8 7 7 9 10 10 11 11 11
-3 -4 -5 -4 -3 -2 1 3 4 9 11 10 11 11 11 11 11 11 11 10 9 9 8 8 8 8 9 10 10 10 11 11
-0 -2 -4 -3 -3 -2 0 4 3 5 10 10 10 11 11 11 12 12 11 11 9 11 9 8 8 8 8 9 11 10 10 11
-0 0 -2 -4 -3 -3 -2 1 3 2 6 10 10 10 10 10 11 12 12 11 10 11 10 9 9 8 8 9 11 10 10 10
2 0 -1 -2 -3 -2 -3 -2 2 3 2 7 9 9 9 9 10 12 12 12 12 12 10 9 9 8 8 9 11 10 10 9
2 2 -1 -1 -3 -2 -2 -3 -2 1 2 1 6 8 8 8 10 11 12 12 12 11 10 10 9 8 8 8 10 11 11 10
6 2 1 -1 -2 -2 -1 -2 -3 -1 1 -1 2 5 8 8 9 11 12 12 12 11 11 11 9 8 8 8 8 9 10 10
2 4 2 0 -0 -1 -0 -0 -1 -1 1 0 0 3 6 8 8 10 11 12 12 12 11 11 10 9 8 8 8 8 8 10
-4 8 4 4 2 1 0 1 1 -0 1 2 -0 0 4 7 8 9 10 11 12 12 12 11 11 10 10 9 9 9 9 9
-4 -1 9 7 7 4 3 3 3 2 1 1 1 -1 1 6 8 9 9 10 11 12 12 12 11 11 11 10 10 10 10 9
6 6 10 10 9 7 8 7 5 4 4 3 3 2 1 2 7 9 9 10 10 10 12 12 11 11 11 11 10 11 10 10
12 12 11 11 9 10 10 10 8 6 6 5 5 4 3 2 3 7 9 10 10 10 11 11 11 11 11 11 10 10 10 10
13 13 13 11 11 11 11 11 11 10 8 7 7 6 5 5 3 5 8 9 10 10 11 11 11 11 10 10 10 9 9 8
8 14 14 13 11 10 10 9 9 9 10 8 8 8 7 7 5 5 5 8 9 10 11 11 11 11 10 10 10 9 10 9
6 8 14 13 12 12 11 11 10 10 11 11 11 10 9 9 7 7 8 7 7 8 11 11 12 11 10 10 9 9 9 10
9 10 12 13 13 14 14 12 12 13 12 12 11 11 10 10 8 8 9 9 9 8 10 11 11 10 10 10 9 9 9 10
8 9 10 10 11 12 12 12 12 13 13 12 13 12 11 10 8 8 8 9 10 10 10 11 11 11 10 10 10 9 9 9
7 8 9 10 10 11 11 12 12 13 12 13 13 13 10 11 12 9 8 9 10 11 10 10 11 10 11 11 10 9 8 8
Wind_Speed
29 28 27 24 22 21 21 22 22 21 21 20 20 18 18 16 16 15 15 14 14 13 13 13 11 11 11 12 13 14 14 14
32 30 28 26 24 22 21 21 21 21 21 21 20 19 18 17 16 16 15 15 14 13 13 11 10 10 11 12 12 12 14 13
34 32 30 27 25 24 23 21 22 22 21 21 21 21 19 18 18 17 17 16 16 14 13 11 10 10 10 10 10 13 13 14
37 34 32 30 27 25 25 24 24 25 25 24 24 22 20 20 19 18 18 18 16 15 13 14 10 11 11 12 13 12 15 14
38 35 35 32 30 28 27 27 26 26 26 25 24 24 22 22 21 21 21 22 20 15 17 17 13 11 11 13 14 14 14 15
39 38 37 35 32 29 27 28 28 26 26 27 26 26 24 23 24 24 24 26 22 18 20 17 14 11 11 13 15 13 14 15
42 40 39 37 34 31 28 28 29 27 25 26 27 26 25 24 24 26 26 26 23 20 22 20 15 13 12 14 17 16 15 16
43 43 41 39 36 33 30 27 27 27 26 24 26 26 25 24 25 26 26 25 23 21 22 23 17 15 13 14 17 19 19 19
44 45 43 41 39 36 33 29 28 28 28 25 25 25 25 24 24 25 26 25 23 22 21 22 21 18 16 15 16 18 19 19
35 45 47 44 42 39 34 31 29 30 29 27 24 24 24 24 24 24 25 24 24 24 23 23 23 21 19 19 18 17 19 20
35 43 49 47 44 40 34 33 32 32 30 28 25 24 25 25 25 24 23 23 25 26 25 25 24 23 22 22 21 20 19 20
38 37 49 49 46 41 37 36 35 34 31 30 28 26 25 26 26 25 24 24 24 26 27 26 25 24 24 23 24 23 22 22
35 40 47 50 49 45 41 40 38 36 34 32 30 28 26 26 27 27 26 26 25 25 27 27 26 25 23 24 25 25 23 25
30 36 41 50 48 47 42 35 36 36 36 35 33 30 28 27 27 28 28 27 27 28 29 29 27 27 25 23 19 23 26 25
35 36 39 45 47 43 37 34 36 37 38 37 35 32 31 30 29 28 28 29 30 31 30 31 28 28 28 22 10 13 15 20
33 35 32 36 42 39 38 37 37 36 38 38 38 35 33 32 29 28 28 30 31 32 31 31 31 31 27 29 29 24 10 10
17 30 31 32 32 36 37 36 37 36 36 37 39 37 36 32 31 30 30 30 32 33 32 32 31 30 31 30 30 30 31 25
14 17 25 27 31 29 31 33 36 36 38 37 35 37 38 35 32 32 30 30 32 33 32 33 33 32 34 35 33 31 33 33
13 15 16 19 25 27 29 31 32 33 37 37 37 35 37 38 35 34 32 30 31 32 31 34 35 37 36 35 34 34 34 31
12 13 12 11 16 20 25 27 31 32 32 35 35 35 35 40 42 36 34 32 30 31 29 32 35 34 36 37 36 33 34 37
Wind_Direction
191 191 191 192 196 200 200 202 201 197 197 197 196 194 189 184 183 183 184 187 190 190 190 182 182 185 186 192 194 189 187 189
196 193 192 194 197 201 199 199 202 200 197 197 199 196 192 189 187 188 188 189 186 185 187 184 190 185 191 200 197 194 194 196
202 198 195 196 200 199 199 193 199 203 199 197 197 198 194 193 193 190 191 190 182 186 193 199 186 195 200 202 195 204 204 207
204 201 200 200 199 199 198 194 192 201 201 198 200 199 198 197 195 193 194 190 187 192 205 194 200 204 206 205 206 207 217 212
208 204 204 204 200 198 199 197 195 197 203 202 201 201 199 198 196 194 196 192 193 204 209 201 211 220 224 222 211 206 211 213
212 208 208 207 204 201 200 201 200 198 202 205 204 205 203 202 201 200 198 198 207 217 212 208 220 231 230 223 213 208 207 211
220 214 211 211 208 204 203 204 205 202 203 206 207 210 208 206 205 204 205 207 213 218 212 215 221 229 224 214 218 216 212 212
227 220 216 214 213 211 208 206 207 207 206 208 210 213 214 212 210 208 208 211 216 214 215 219 223 227 226 222 221 226 227 226
236 226 219 218 217 215 213 211 209 210 208 209 211 213 216 218 216 213 213 213 213 214 217 218 222 225 225 227 229 233 234 236
246 233 223 221 220 218 217 216 213 214 213 210 212 213 216 219 219 219 219 216 213 216 218 221 223 228 228 229 239 244 245 243
255 233 229 223 223 222 220 220 218 219 217 214 214 214 215 220 221 222 222 221 218 219 220 223 227 230 235 238 244 254 253 250
255 241 228 223 224 222 220 223 220 220 221 220 217 217 214 219 223 223 224 225 222 221 223 225 228 232 238 243 248 255 257 260
241 242 227 220 220 221 219 222 221 220 219 223 222 220 217 218 223 226 225 227 228 228 227 226 228 230 236 243 251 254 251 253
225 225 229 220 220 223 222 228 227 225 222 222 224 223 221 221 223 227 228 228 229 230 229 230 231 233 235 243 255 255 256 252
216 218 224 221 222 222 224 228 228 225 225 226 226 223 224 224 225 226 230 231 232 234 233 231 233 235 237 234 230 239 256 262
205 210 215 222 221 223 227 230 233 235 231 228 228 224 224 225 228 230 231 235 236 235 237 235 235 238 240 240 244 251 241 260
180 196 199 207 211 224 227 228 235 240 239 238 230 228 228 225 229 232 235 235 239 238 237 236 239 241 243 244 242 251 250 248
141 160 179 188 200 206 216 228 235 239 239 241 240 233 231 228 230 234 237 240 241 244 239 239 239 241 246 246 247 245 247 250
114 136 156 178 194 201 212 220 225 236 240 243 239 237 231 230 232 235 235 240 244 246 245 242 240 241 245 249 251 252 257 261
97 109 129 162 192 208 215 222 224 227 235 243 244 242 238 232 233 237 240 242 246 245 246 248 247 248 247 249 254 257 258 258
Height
1486 1488 1491 1493 1495 1497 1499 1502 1504 1504 1507 1510 1513 1516 1518 1521 1524 1526 1529 1531 1532 1533 1535 1537 1538 1540 1542 1543 1545 1547 1548 1549
1483 1485 1489 1492 1494 1496 1497 1500 1504 1505 1505 1508 1512 1515 1518 1520 1523 1525 1528 1530 1531 1534 1536 1537 1538 1540 1541 1543 1545 1548 1548 1550
1481 1483 1486 1489 1493 1495 1496 1497 1502 1505 1506 1507 1510 1514 1517 1519 1522 1524 1526 1529 1531 1533 1535 1537 1538 1540 1541 1543 1546 1548 1549 1550
1478 1481 1484 1486 1489 1493 1495 1496 1497 1502 1504 1506 1508 1511 1515 1518 1521 1523 1525 1528 1531 1532 1534 1536 1538 1539 1541 1543 1545 1547 1549 1549
1475 1479 1480 1484 1486 1489 1492 1494 1495 1497 1502 1504 1506 1508 1511 1515 1518 1521 1522 1526 1528 1530 1532 1534 1536 1538 1540 1542 1544 1546 1549 1550
1472 1474 1478 1479 1482 1484 1488 1491 1493 1494 1497 1501 1503 1505 1508 1512 1515 1518 1520 1523 1526 1528 1530 1533 1534 1536 1538 1540 1543 1545 1547 1549
1467 1470 1473 1476 1479 1480 1483 1488 1491 1493 1494 1498 1500 1503 1505 1508 1512 1515 1518 1520 1523 1526 1528 1531 1533 1534 1536 1539 1541 1543 1545 1546
1462 1465 1469 1472 1475 1478 1480 1483 1488 1490 1492 1494 1497 1500 1503 1505 1508 1512 1515 1517 1521 1524 1526 1529 1531 1533 1534 1537 1539 1541 1543 1544
1455 1460 1464 1467 1470 1473 1476 1480 1483 1487 1489 1490 1493 1497 1500 1503 1506 1509 1512 1515 1519 1521 1524 1527 1529 1531 1533 1535 1537 1539 1540 1542
1447 1452 1457 1461 1464 1467 1472 1476 1480 1483 1486 1487 1490 1493 1497 1500 1502 1506 1509 1512 1516 1518 1521 1524 1526 1528 1530 1532 1534 1536 1537 1539
1438 1442 1448 1454 1459 1463 1468 1472 1475 1478 1482 1484 1486 1489 1493 1497 1499 1502 1506 1509 1512 1515 1517 1521 1523 1526 1528 1529 1531 1533 1534 1535
1427 1432 1438 1446 1452 1458 1462 1465 1468 1472 1477 1480 1482 1484 1487 1492 1496 1498 1501 1505 1508 1511 1514 1517 1520 1523 1525 1526 1528 1529 1530 1531
1418 1422 1428 1437 1443 1449 1453 1457 1462 1466 1471 1475 1478 1480 1483 1486 1491 1495 1497 1500 1504 1507 1510 1512 1515 1519 1521 1522 1523 1524 1525 1526
1409 1412 1420 1427 1435 1442 1447 1454 1458 1462 1465 1469 1473 1476 1479 1481 1485 1490 1493 1496 1498 1501 1504 1507 1510 1513 1516 1519 1519 1520 1519 1521
1401 1406 1412 1419 1428 1436 1444 1448 1452 1455 1459 1463 1467 1471 1474 1477 1479 1483 1488 1491 1493 1496 1499 1502 1505 1508 1511 1515 1515 1515 1515 1515
1394 1402 1408 1414 1422 1432 1436 1440 1444 1449 1453 1457 1461 1465 1468 1472 1475 1478 1481 1485 1487 1490 1494 1497 1500 1502 1506 1507 1510 1511 1511 1511
1391 1396 1402 1407 1416 1424 1428 1434 1440 1445 1448 1450 1456 1460 1462 1467 1470 1473 1475 1478 1481 1483 1487 1491 1494 1496 1498 1500 1503 1505 1506 1506
1390 1393 1398 1405 1411 1418 1424 1428 1434 1439 1441 1443 1447 1452 1456 1460 1462 1466 1469 1471 1473 1476 1480 1483 1486 1489 1491 1493 1495 1497 1497 1499
1391 1393 1397 1402 1408 1414 1420 1425 1428 1433 1436 1437 1440 1444 1448 1452 1453 1458 1462 1464 1467 1470 1473 1476 1479 1481 1484 1486 1488 1490 1492 1492
1392 1394 1396 1401 1406 1411 1416 1420 1424 1425 1429 1432 1435 1438 1441 1444 1445 1451 1455 1458 1461 1464 1466 1469 1471 1474 1476 1478 1480 1482 1484 1485